Cincinnati, OH

1:27 PM EST on February 10, 2016 (GMT -0500)
Cincinnati Municipal-Lunken

Weather History for KLUK - September, 2013

Change the Weather History Date:

Thursday, September 5, 2013

  Actual Average Record
Temperature  
Mean Temperature 70 °F -  
Max Temperature 84 °F 82 °F 98 °F (2007)
Min Temperature 57 °F 61 °F 46 °F (1974)
Cooling Degree Days 6    
Growing Degree Days 20 (Base 50)    
Moisture  
Dew Point 60 °F    
Average Humidity 86    
Maximum Humidity 100    
Minimum Humidity 40    
Precipitation  
Precipitation 0.00 in - - ()
Sea Level Pressure  
Sea Level Pressure 30.16 in    
Wind  
Wind Speed 1 mph (ENE)    
Max Wind Speed 8 mph    
Max Gust Speed -    
Visibility 5 miles    
Events Fog    
Averages and records for this station are not official NWS values.
T = Trace of Precipitation, MM = Missing Value Source: NWS Daily Summary

Daily Weather History Graph

Daily Weather History Graph

Search for Another Location

Airport or City:

Trip Planner

Search our weather history database for the weather conditions in past years. The results will help you decide how hot, cold, wet, or windy it might be!

Date:

Astronomy

Sep. 05, 2013 Rise Set
Actual Time 7:10 AM EDT 8:01 PM EDT
Civil Twilight 6:43 AM EDT 8:28 PM EDT
Nautical Twilight 6:10 AM EDT 9:00 PM EDT
Astronomical Twilight 5:37 AM EDT 9:34 PM EDT
Moon 7:20 AM EDT (9/5) 7:53 PM EDT (9/5)
Length of Visible Light 13h 45m
Length of Day
12h 51m
New Moon, 0% of the Moon is Illuminated
Sep 5
New Moon
Sep 12
First Quarter
Sep 19
Full
Sep 26
Last Quarter
Oct 4
New

Hourly Weather History & Observations

Time (EDT) Temp. Heat Index Dew Point Humidity Pressure Visibility Wind Dir Wind Speed Gust Speed Precip Events Conditions
12:53 AM 62.1 °F - 61.0 °F 96% 30.14 in 7.0 mi Calm Calm - N/A   Clear
1:41 AM 60.8 °F - 60.8 °F 100% 30.15 in 2.5 mi Calm Calm - N/A   Clear
1:51 AM 60.8 °F - 60.8 °F 100% 30.15 in 3.0 mi Calm Calm - N/A   Clear
1:53 AM 60.1 °F - 60.1 °F 100% 30.14 in 3.0 mi Calm Calm - N/A   Clear
2:24 AM 60.8 °F - 59.0 °F 94% 30.15 in 1.8 mi Calm Calm - N/A   Clear
2:40 AM 60.8 °F - 60.8 °F 100% 30.15 in 2.0 mi Calm Calm - N/A   Clear
2:53 AM 60.1 °F - 59.0 °F 96% 30.14 in 4.0 mi Calm Calm - N/A   Clear
2:58 AM 59.0 °F - 59.0 °F 100% 30.15 in 1.8 mi Calm Calm - N/A   Clear
3:11 AM 59.0 °F - 59.0 °F 100% 30.15 in 0.5 mi Calm Calm - N/A Fog Fog
3:38 AM 60.8 °F - 59.0 °F 94% 30.16 in 2.0 mi Calm Calm - N/A   Clear
3:46 AM 59.0 °F - 57.2 °F 94% 30.16 in 5.0 mi Calm Calm - N/A   Clear
3:53 AM 59.0 °F - 59.0 °F 100% 30.15 in 3.0 mi Calm Calm - N/A   Clear
4:11 AM 59.0 °F - 57.2 °F 94% 30.16 in 1.5 mi Calm Calm - N/A   Clear
4:20 AM 59.0 °F - 59.0 °F 100% 30.16 in 0.8 mi Calm Calm - N/A   Clear
4:25 AM 59.0 °F - 57.2 °F 94% 30.16 in 2.0 mi Calm Calm - N/A   Clear
4:33 AM 57.2 °F - 57.2 °F 100% 30.16 in 3.0 mi Calm Calm - N/A   Clear
4:42 AM 59.0 °F - 59.0 °F 100% 30.16 in 2.5 mi Calm Calm - N/A   Clear
4:50 AM 59.0 °F - 59.0 °F 100% 30.16 in 4.0 mi Calm Calm - N/A   Clear
4:53 AM 59.0 °F - 57.9 °F 96% 30.16 in 4.0 mi Calm Calm - N/A   Clear
5:03 AM 57.2 °F - 57.2 °F 100% 30.17 in 1.8 mi Calm Calm - N/A   Clear
5:14 AM 57.2 °F - 57.2 °F 100% 30.17 in 0.5 mi Calm Calm - N/A Fog Fog
5:20 AM 57.2 °F - 57.2 °F 100% 30.17 in 0.2 mi Calm Calm - N/A Fog Fog
5:36 AM 57.2 °F - 57.2 °F 100% 30.17 in 0.8 mi Calm Calm - N/A   Mist
5:53 AM 57.9 °F - 57.9 °F 100% 30.16 in 1.0 mi Calm Calm - N/A   Mist
6:07 AM 57.2 °F - 57.2 °F 100% 30.17 in 2.5 mi Calm Calm - N/A   Mostly Cloudy
6:14 AM 57.2 °F - 57.2 °F 100% 30.17 in 4.0 mi Calm Calm - N/A   Overcast
6:45 AM 59.0 °F - 59.0 °F 100% 30.17 in 2.5 mi Calm Calm - N/A   Overcast
6:50 AM 60.8 °F - 59.0 °F 94% 30.17 in 0.2 mi Calm Calm - N/A Fog Fog
6:53 AM 59.0 °F - 59.0 °F 100% 30.16 in 0.2 mi Calm Calm - N/A Fog Fog
7:53 AM 60.1 °F - 60.1 °F 100% 30.18 in 0.2 mi Calm Calm - N/A Fog Fog
8:53 AM 61.0 °F - 61.0 °F 100% 30.19 in 0.2 mi Calm Calm - N/A Fog Fog
9:15 AM 62.6 °F - 62.6 °F 100% 30.20 in 1.0 mi Calm Calm - N/A   Scattered Clouds
9:26 AM 64.4 °F - 64.4 °F 100% 30.20 in 3.0 mi Calm Calm - N/A   Partly Cloudy
9:53 AM 64.0 °F - 63.0 °F 96% 30.19 in 10.0 mi Calm Calm - N/A   Clear
10:53 AM 73.9 °F - 63.0 °F 68% 30.19 in 10.0 mi SE 4.6 mph - N/A   Clear
11:53 AM 78.1 °F - 62.1 °F 58% 30.19 in 10.0 mi Calm Calm - N/A   Clear
12:53 PM 81.0 °F 81.7 °F 61.0 °F 50% 30.19 in 10.0 mi Calm Calm - N/A   Clear
1:53 PM 82.0 °F 82.1 °F 59.0 °F 45% 30.18 in 10.0 mi Calm Calm - N/A   Clear
2:53 PM 82.9 °F 82.6 °F 57.9 °F 42% 30.17 in 10.0 mi SSE 3.5 mph - N/A   Clear
3:53 PM 84.0 °F 83.3 °F 57.0 °F 40% 30.14 in 10.0 mi East 5.8 mph - N/A   Partly Cloudy
4:53 PM 84.9 °F 84.2 °F 57.9 °F 40% 30.14 in 10.0 mi NNW 8.1 mph - N/A   Mostly Cloudy
5:53 PM 84.9 °F 84.4 °F 59.0 °F 41% 30.13 in 10.0 mi East 4.6 mph - N/A   Scattered Clouds
6:53 PM 82.9 °F 83.2 °F 60.1 °F 46% 30.13 in 10.0 mi NE 5.8 mph - N/A   Partly Cloudy
7:53 PM 75.0 °F - 66.9 °F 76% 30.13 in 10.0 mi Calm Calm - N/A   Partly Cloudy
8:53 PM 73.0 °F - 64.9 °F 76% 30.15 in 10.0 mi Calm Calm - N/A   Mostly Cloudy
9:53 PM 71.1 °F - 63.0 °F 75% 30.17 in 10.0 mi NE 8.1 mph - N/A   Partly Cloudy
10:53 PM 70.0 °F - 59.0 °F 68% 30.19 in 10.0 mi NNE 4.6 mph - N/A   Clear
11:53 PM 66.0 °F - 55.0 °F 68% 30.20 in 10.0 mi NE 8.1 mph - N/A   Clear